OBJECT BE, 61787

Orbit data source: Space-Track

You're viewing an Uncataloged Satellite

Recently launched and/or uncataloged satellites may have evolving metadata. Metadata may include but not limited to: Owner, Maufacturer, Bus, Motor, and Mission.

OBJECT BE, 61787 is a satellite in SSO that was launched on Mon, 04 Nov 2024 UTC via a SOYUZ-2-1B launch vehicle from the Vostochny Cosmodrome (VOSTO). Unknown objects in Earth's orbit typically refer to objects detected orbiting the Earth but have not yet been identified or cataloged. These objects could be anything from previously untracked satellites, spent rocket stages, debris from satellite collisions, or even natural meteoroids temporarily captured by Earth's gravity.

Loading next visibility...
Identifier
61787, 2024-199BE
Orbit
SSO
Country
Flag of TBDTBD
Related business
None
Manufacturer
Unknown
Mission
Operational Amateur Technology
Bus & Motor
Unknown
Mass
Unknown
Launch date (UTC)
2024-11-04 (1 year ago)
Launch vehicle
SOYUZ-2-1B
Launch site
Vostochny Cosmodrome (VOSTO)
Object type
Unknown
Shape & HBR
Box, 0.1 m
Radar Cross Section
0.035 m², Medium (>0.1 m² and < 1m²)

Expand to show TLE details & history
Last TLE update: 7 hours ago

TLE from 7 hours ago
0 OBJECT BE
1 61787U 24199BE  26037.96037095  .00014231  00000-0  43492-3 0  9997
2 61787  97.3205 267.9977 0015771  57.9992 302.2781 15.33858515117114
Epoch: 2026-02-06T23:02Z
TLE epoch observation values (Epoch: 2026-02-06T23:02:56.050Z)
Latitude
-0°
Longitude
145.17341°
Altitude
461.673 km
Speed
7.639 km/s
True Right ascension
17h 51m 59s
True Declination
0° 00' 00"
Sunlit
Object was in daylight at epoch
Visualization orbit readout
Latitude
Unknown
Longitude
Unknown
Altitude
Unknown
Speed
Unknown
Apparent Right ascension
Unknown
Apparent Declination
Unknown
Sunlit
N/A
Visualization observer readout
Local Sidereal Time
08:00:45
Azimuth
Unknown
Elevation
Unknown
Doppler factor
Unknown
Orbital elements
Apogee altitude
472.043 km
Perigee altitude
450.47 km
Semi-major axis
6,839.394 km
Eccentricity
0.00158
Inclination
97.3205°
RAAN
267.9977°
Arg. of periapsis
57.9992°
True anomaly
302.12514°
Mean anomaly
302.2781°
Eccentric anomaly
302.20164°
Mean motion
3.83722 °/min
Orbital period
93.82 mins
BSTAR
0.00043492
Loading maneuver chart data...
Computing Atmospheric mass density...
Loading historical data...
Loading historical data...
Loading historical data...
Loading historical data...
Loading historical data...
Loading historical data...
Loading historical data...

Documentation

Showing up to 5 results
|